Simultaneous Nadir Overpasses (SNOs) Predictions

Prediction of SNOs between NPP and TERRA Satellite Orbit:

Table of predicted SNOs for the next 14.0 days since TLE Epoch: 1/11/2014
Index Date (NPP) Time (NPP) Lat,Lon (NPP) SZA (NPP ) Date (TERRA) Time (TERRA) Lat,Lon (TERRA) SZA (TERRA ) Distance(km) Time Diff (sec)
1 01/13/2014 09:00:33 -68.68,-136.42 89.95 01/13/2014 09:01:31 -68.67,-136.35 89.96 2.70 58
2 01/13/2014 09:51:17 68.53, 31.08 89.90 01/13/2014 09:50:59 68.50, 31.08 89.88 2.96 18
3 01/13/2014 10:41:48 -67.87,-160.76 90.78 01/13/2014 10:40:38 -67.90,-162.00 90.73 52.33 70
4 01/16/2014 00:27:06 69.71, 170.57 90.66 01/16/2014 00:28:12 69.61, 173.11 90.50 98.78 66
5 01/16/2014 01:17:29 -68.63, -20.58 90.47 01/16/2014 01:17:58 -68.62, -20.54 90.49 2.49 29
6 01/16/2014 02:08:13 68.49, 146.91 89.38 01/16/2014 02:07:25 68.50, 146.96 89.39 2.30 48
7 01/18/2014 16:43:44 68.67, -72.18 89.06 01/18/2014 16:44:55 68.69, -72.19 89.07 2.24 71
8 01/18/2014 17:34:25 -68.54, 95.31 91.09 01/18/2014 17:34:26 -68.53, 95.25 91.10 2.73 1
9 01/18/2014 18:25:07 68.29, -97.06 88.66 01/18/2014 18:23:54 68.35, -97.32 88.73 12.60 73
10 01/21/2014 09:00:41 68.65, 43.63 88.46 01/21/2014 09:01:22 68.63, 43.63 88.44 1.64 41
11 01/21/2014 09:51:22 -68.52,-148.88 91.69 01/21/2014 09:50:52 -68.53,-148.86 91.67 2.32 30
12 01/24/2014 00:27:04 -69.30, -8.80 91.48 01/24/2014 00:28:13 -69.18, -7.43 91.64 55.48 69
13 01/24/2014 01:17:37 68.58, 159.49
